owner,sensor,date,latitude,longitude,vertical_datum,wind_speed,wind_to_direction,wind_speed_of_gust,qcFlag 
TCOON,ioos:station:TCOON:057:1,2016-02-01T00:00:00Z,28.4460,-96.3961,0.0,2.9,151.0,3.4,'11111222,11111222,11111222' 
TCOON,ioos:station:TCOON:057:1,2016-02-01T00:06:00Z,28.4460,-96.3961,0.0,2.6,146.0,3.0,'11111222,11111222,11111222' 
TCOON,ioos:station:TCOON:057:1,2016-02-01T00:12:00Z,28.4460,-96.3961,0.0,2.6,146.0,2.8,'11111222,11111222,11111222' 
TCOON,ioos:station:TCOON:057:1,2016-02-01T00:18:00Z,28.4460,-96.3961,0.0,3.1,136.0,3.2,'11111222,11111222,11111222' 
TCOON,ioos:station:TCOON:057:1,2016-02-01T00:24:00Z,28.4460,-96.3961,0.0,2.5,135.0,3.1,'11111222,11111222,11111222' 
TCOON,ioos:station:TCOON:057:1,2016-02-01T00:30:00Z,28.4460,-96.3961,0.0,2.8,141.0,3.1,'11111222,11111222,11111222' 
TCOON,ioos:station:TCOON:057:1,2016-02-01T00:36:00Z,28.4460,-96.3961,0.0,3.2,147.0,3.6,'11111222,11111222,11111222' 
TCOON,ioos:station:TCOON:057:1,2016-02-01T00:42:00Z,28.4460,-96.3961,0.0,3.3,151.0,3.7,'11111222,11111222,11111222' 
TCOON,ioos:station:TCOON:057:1,2016-02-01T00:48:00Z,28.4460,-96.3961,0.0,3.2,152.0,3.7,'11111222,11111222,11111222' 
TCOON,ioos:station:TCOON:057:1,2016-02-01T00:54:00Z,28.4460,-96.3961,0.0,2.9,153.0,3.4,'11111222,11111222,11111222' 
TCOON,ioos:station:TCOON:057:1,2016-02-01T01:00:00Z,28.4460,-96.3961,0.0,3.2,153.0,3.4,'11111222,11111222,11111222' 
TCOON,ioos:station:TCOON:057:1,2016-02-01T01:06:00Z,28.4460,-96.3961,0.0,3.0,148.0,3.6,'11111222,11111222,11111222' 
TCOON,ioos:station:TCOON:057:1,2016-02-01T01:12:00Z,28.4460,-96.3961,0.0,2.8,154.0,3.3,'11111222,11111222,11111222' 
TCOON,ioos:station:TCOON:057:1,2016-02-01T01:18:00Z,28.4460,-96.3961,0.0,2.8,150.0,3.0,'11111222,11111222,11111222' 
TCOON,ioos:station:TCOON:057:1,2016-02-01T01:24:00Z,28.4460,-96.3961,0.0,3.0,141.0,3.3,'11111222,11111222,11111222' 
TCOON,ioos:station:TCOON:057:1,2016-02-01T01:30:00Z,28.4460,-96.3961,0.0,3.2,137.0,3.3,'11111222,11111222,11111222' 
TCOON,ioos:station:TCOON:057:1,2016-02-01T01:36:00Z,28.4460,-96.3961,0.0,3.2,138.0,3.4,'11111222,11111222,11111222' 
TCOON,ioos:station:TCOON:057:1,2016-02-01T01:42:00Z,28.4460,-96.3961,0.0,3.3,142.0,3.6,'11111222,11111222,11111222' 
TCOON,ioos:station:TCOON:057:1,2016-02-01T01:48:00Z,28.4460,-96.3961,0.0,3.7,140.0,4.0,'11111222,11111222,11111222' 
TCOON,ioos:station:TCOON:057:1,2016-02-01T01:54:00Z,28.4460,-96.3961,0.0,3.6,144.0,4.0,'11111222,11111222,11111222' 
TCOON,ioos:station:TCOON:057:1,2016-02-01T02:00:00Z,28.4460,-96.3961,0.0,4.0,147.0,4.5,'11111222,11111222,11111222' 
TCOON,ioos:station:TCOON:057:1,2016-02-01T02:06:00Z,28.4460,-96.3961,0.0,4.5,150.0,4.8,'11111222,11111222,11111222' 
TCOON,ioos:station:TCOON:057:1,2016-02-01T02:12:00Z,28.4460,-96.3961,0.0,4.6,146.0,5.1,'11111222,11111222,11111222' 
TCOON,ioos:station:TCOON:057:1,2016-02-01T02:18:00Z,28.4460,-96.3961,0.0,4.6,144.0,5.0,'11111222,11111222,11111222' 
TCOON,ioos:station:TCOON:057:1,2016-02-01T02:24:00Z,28.4460,-96.3961,0.0,4.6,147.0,5.2,'11111222,11111222,11111222' 
TCOON,ioos:station:TCOON:057:1,2016-02-01T02:30:00Z,28.4460,-96.3961,0.0,4.2,155.0,5.2,'11111222,11111222,11111222' 
TCOON,ioos:station:TCOON:057:1,2016-02-01T02:36:00Z,28.4460,-96.3961,0.0,4.2,159.0,4.7,'11111222,11111222,11111222' 
TCOON,ioos:station:TCOON:057:1,2016-02-01T02:42:00Z,28.4460,-96.3961,0.0,3.9,168.0,4.5,'11111222,11111222,11111222' 
TCOON,ioos:station:TCOON:057:1,2016-02-01T02:48:00Z,28.4460,-96.3961,0.0,3.8,172.0,4.2,'11111222,11111222,11111222' 
TCOON,ioos:station:TCOON:057:1,2016-02-01T02:54:00Z,28.4460,-96.3961,0.0,4.4,162.0,4.8,'11111222,11111222,11111222' 
TCOON,ioos:station:TCOON:057:1,2016-02-01T03:00:00Z,28.4460,-96.3961,0.0,4.4,160.0,5.0,'11111222,11111222,11111222' 
TCOON,ioos:station:TCOON:057:1,2016-02-01T03:06:00Z,28.4460,-96.3961,0.0,4.1,155.0,4.8,'11111222,11111222,11111222' 
TCOON,ioos:station:TCOON:057:1,2016-02-01T03:12:00Z,28.4460,-96.3961,0.0,4.1,155.0,4.6,'11111222,11111222,11111222' 
TCOON,ioos:station:TCOON:057:1,2016-02-01T03:18:00Z,28.4460,-96.3961,0.0,3.8,154.0,4.5,'11111222,11111222,11111222' 
TCOON,ioos:station:TCOON:057:1,2016-02-01T03:24:00Z,28.4460,-96.3961,0.0,4.1,157.0,4.8,'11111222,11111222,11111222' 
TCOON,ioos:station:TCOON:057:1,2016-02-01T03:30:00Z,28.4460,-96.3961,0.0,4.0,157.0,4.7,'11111222,11111222,11111222' 
TCOON,ioos:station:TCOON:057:1,2016-02-01T03:36:00Z,28.4460,-96.3961,0.0,3.8,153.0,4.4,'11111222,11111222,11111222' 
TCOON,ioos:station:TCOON:057:1,2016-02-01T03:42:00Z,28.4460,-96.3961,0.0,3.6,155.0,4.2,'11111222,11111222,11111222' 
TCOON,ioos:station:TCOON:057:1,2016-02-01T03:48:00Z,28.4460,-96.3961,0.0,3.6,159.0,4.1,'11111222,11111222,11111222' 
TCOON,ioos:station:TCOON:057:1,2016-02-01T03:54:00Z,28.4460,-96.3961,0.0,4.0,156.0,4.5,'11111222,11111222,11111222' 
TCOON,ioos:station:TCOON:057:1,2016-02-01T04:00:00Z,28.4460,-96.3961,0.0,3.8,158.0,4.3,'11111222,11111222,11111222' 
TCOON,ioos:station:TCOON:057:1,2016-02-01T04:06:00Z,28.4460,-96.3961,0.0,4.2,158.0,4.7,'11111222,11111222,11111222' 
TCOON,ioos:station:TCOON:057:1,2016-02-01T04:12:00Z,28.4460,-96.3961,0.0,3.7,160.0,4.3,'11111222,11111222,11111222' 
TCOON,ioos:station:TCOON:057:1,2016-02-01T04:18:00Z,28.4460,-96.3961,0.0,3.8,161.0,4.5,'11111222,11111222,11111222' 
TCOON,ioos:station:TCOON:057:1,2016-02-01T04:24:00Z,28.4460,-96.3961,0.0,3.9,162.0,4.4,'11111222,11111222,11111222' 
TCOON,ioos:station:TCOON:057:1,2016-02-01T04:30:00Z,28.4460,-96.3961,0.0,3.6,162.0,4.4,'11111222,11111222,11111222' 
TCOON,ioos:station:TCOON:057:1,2016-02-01T04:36:00Z,28.4460,-96.3961,0.0,3.5,164.0,4.1,'11111222,11111222,11111222' 
TCOON,ioos:station:TCOON:057:1,2016-02-01T04:42:00Z,28.4460,-96.3961,0.0,3.9,163.0,4.7,'11111222,11111222,11111222' 
TCOON,ioos:station:TCOON:057:1,2016-02-01T04:48:00Z,28.4460,-96.3961,0.0,4.3,164.0,4.8,'11111222,11111222,11111222' 
TCOON,ioos:station:TCOON:057:1,2016-02-01T04:54:00Z,28.4460,-96.3961,0.0,4.1,163.0,5.1,'11111222,11111222,11111222' 
TCOON,ioos:station:TCOON:057:1,2016-02-01T05:00:00Z,28.4460,-96.3961,0.0,5.0,162.0,5.7,'11111222,11111222,11111222' 
TCOON,ioos:station:TCOON:057:1,2016-02-01T05:06:00Z,28.4460,-96.3961,0.0,4.6,164.0,5.4,'11111222,11111222,11111222' 
TCOON,ioos:station:TCOON:057:1,2016-02-01T05:12:00Z,28.4460,-96.3961,0.0,4.2,161.0,4.9,'11111222,11111222,11111222' 
TCOON,ioos:station:TCOON:057:1,2016-02-01T05:18:00Z,28.4460,-96.3961,0.0,4.6,161.0,5.0,'11111222,11111222,11111222' 
TCOON,ioos:station:TCOON:057:1,2016-02-01T05:30:00Z,28.4460,-96.3961,0.0,4.3,164.0,4.6,'11111222,11111222,11111222' 
TCOON,ioos:station:TCOON:057:1,2016-02-01T05:36:00Z,28.4460,-96.3961,0.0,4.1,171.0,4.8,'11111222,11111222,11111222' 
TCOON,ioos:station:TCOON:057:1,2016-02-01T05:42:00Z,28.4460,-96.3961,0.0,4.0,172.0,4.7,'11111222,11111222,11111222' 
TCOON,ioos:station:TCOON:057:1,2016-02-01T05:48:00Z,28.4460,-96.3961,0.0,4.4,166.0,4.8,'11111222,11111222,11111222' 
TCOON,ioos:station:TCOON:057:1,2016-02-01T05:54:00Z,28.4460,-96.3961,0.0,4.0,167.0,4.8,'11111222,11111222,11111222' 
TCOON,ioos:station:TCOON:057:1,2016-02-01T06:00:00Z,28.4460,-96.3961,0.0,3.8,168.0,4.5,'11111222,11111222,11111222' 
TCOON,ioos:station:TCOON:057:1,2016-02-01T06:06:00Z,28.4460,-96.3961,0.0,3.7,171.0,4.2,'11111222,11111222,11111222' 
TCOON,ioos:station:TCOON:057:1,2016-02-01T06:12:00Z,28.4460,-96.3961,0.0,3.8,172.0,4.5,'11111222,11111222,11111222' 
TCOON,ioos:station:TCOON:057:1,2016-02-01T06:18:00Z,28.4460,-96.3961,0.0,4.3,174.0,4.8,'11111222,11111222,11111222' 
TCOON,ioos:station:TCOON:057:1,2016-02-01T06:24:00Z,28.4460,-96.3961,0.0,4.2,177.0,5.1,'11111222,11111222,11111222' 
TCOON,ioos:station:TCOON:057:1,2016-02-01T06:30:00Z,28.4460,-96.3961,0.0,4.3,177.0,5.1,'11111222,11111222,11111222' 
TCOON,ioos:station:TCOON:057:1,2016-02-01T06:36:00Z,28.4460,-96.3961,0.0,4.2,177.0,5.1,'11111222,11111222,11111222' 
TCOON,ioos:station:TCOON:057:1,2016-02-01T06:42:00Z,28.4460,-96.3961,0.0,3.7,179.0,4.4,'11111222,11111222,11111222' 
TCOON,ioos:station:TCOON:057:1,2016-02-01T06:48:00Z,28.4460,-96.3961,0.0,3.8,177.0,4.4,'11111222,11111222,11111222' 
TCOON,ioos:station:TCOON:057:1,2016-02-01T06:54:00Z,28.4460,-96.3961,0.0,3.6,178.0,4.2,'11111222,11111222,11111222' 
TCOON,ioos:station:TCOON:057:1,2016-02-01T07:00:00Z,28.4460,-96.3961,0.0,4.1,175.0,4.7,'11111222,11111222,11111222' 
TCOON,ioos:station:TCOON:057:1,2016-02-01T07:06:00Z,28.4460,-96.3961,0.0,4.1,176.0,4.7,'11111222,11111222,11111222' 
TCOON,ioos:station:TCOON:057:1,2016-02-01T07:12:00Z,28.4460,-96.3961,0.0,3.6,177.0,4.3,'11111222,11111222,11111222' 
TCOON,ioos:station:TCOON:057:1,2016-02-01T07:18:00Z,28.4460,-96.3961,0.0,3.8,173.0,4.5,'11111222,11111222,11111222' 
TCOON,ioos:station:TCOON:057:1,2016-02-01T07:24:00Z,28.4460,-96.3961,0.0,4.0,175.0,4.7,'11111222,11111222,11111222' 
TCOON,ioos:station:TCOON:057:1,2016-02-01T07:30:00Z,28.4460,-96.3961,0.0,3.8,176.0,4.6,'11111222,11111222,11111222' 
TCOON,ioos:station:TCOON:057:1,2016-02-01T07:36:00Z,28.4460,-96.3961,0.0,3.5,172.0,3.9,'11111222,11111222,11111222' 
TCOON,ioos:station:TCOON:057:1,2016-02-01T07:42:00Z,28.4460,-96.3961,0.0,4.1,177.0,4.6,'11111222,11111222,11111222' 
TCOON,ioos:station:TCOON:057:1,2016-02-01T07:48:00Z,28.4460,-96.3961,0.0,4.1,175.0,4.9,'11111222,11111222,11111222' 
TCOON,ioos:station:TCOON:057:1,2016-02-01T07:54:00Z,28.4460,-96.3961,0.0,4.4,173.0,5.2,'11111222,11111222,11111222' 
TCOON,ioos:station:TCOON:057:1,2016-02-01T08:00:00Z,28.4460,-96.3961,0.0,4.2,170.0,4.8,'11111222,11111222,11111222' 
TCOON,ioos:station:TCOON:057:1,2016-02-01T08:06:00Z,28.4460,-96.3961,0.0,3.9,174.0,4.6,'11111222,11111222,11111222' 
TCOON,ioos:station:TCOON:057:1,2016-02-01T08:12:00Z,28.4460,-96.3961,0.0,4.3,176.0,4.9,'11111222,11111222,11111222' 
TCOON,ioos:station:TCOON:057:1,2016-02-01T08:18:00Z,28.4460,-96.3961,0.0,4.7,177.0,5.7,'11111222,11111222,11111222' 
TCOON,ioos:station:TCOON:057:1,2016-02-01T08:24:00Z,28.4460,-96.3961,0.0,4.3,179.0,5.0,'11111222,11111222,11111222' 
TCOON,ioos:station:TCOON:057:1,2016-02-01T08:30:00Z,28.4460,-96.3961,0.0,4.1,180.0,5.5,'11111222,11111222,11111222' 
TCOON,ioos:station:TCOON:057:1,2016-02-01T08:36:00Z,28.4460,-96.3961,0.0,3.9,175.0,4.5,'11111222,11111222,11111222' 
TCOON,ioos:station:TCOON:057:1,2016-02-01T08:42:00Z,28.4460,-96.3961,0.0,3.7,173.0,4.3,'11111222,11111222,11111222' 
TCOON,ioos:station:TCOON:057:1,2016-02-01T08:48:00Z,28.4460,-96.3961,0.0,3.4,175.0,3.9,'11111222,11111222,11111222' 
TCOON,ioos:station:TCOON:057:1,2016-02-01T08:54:00Z,28.4460,-96.3961,0.0,3.2,176.0,3.7,'11111222,11111222,11111222' 
TCOON,ioos:station:TCOON:057:1,2016-02-01T09:00:00Z,28.4460,-96.3961,0.0,3.2,178.0,3.4,'11111222,11111222,11111222' 
TCOON,ioos:station:TCOON:057:1,2016-02-01T09:06:00Z,28.4460,-96.3961,0.0,3.4,174.0,3.6,'11111222,11111222,11111222' 
TCOON,ioos:station:TCOON:057:1,2016-02-01T09:12:00Z,28.4460,-96.3961,0.0,3.6,175.0,4.0,'11111222,11111222,11111222' 
TCOON,ioos:station:TCOON:057:1,2016-02-01T09:18:00Z,28.4460,-96.3961,0.0,3.5,176.0,3.8,'11111222,11111222,11111222' 
TCOON,ioos:station:TCOON:057:1,2016-02-01T09:24:00Z,28.4460,-96.3961,0.0,3.4,178.0,3.6,'11111222,11111222,11111222' 
TCOON,ioos:station:TCOON:057:1,2016-02-01T09:30:00Z,28.4460,-96.3961,0.0,3.2,180.0,4.1,'11111222,11111222,11111222' 
TCOON,ioos:station:TCOON:057:1,2016-02-01T09:36:00Z,28.4460,-96.3961,0.0,3.6,178.0,4.0,'11111222,11111222,11111222' 
TCOON,ioos:station:TCOON:057:1,2016-02-01T09:42:00Z,28.4460,-96.3961,0.0,3.6,189.0,4.3,'11111222,11111222,11111222' 
TCOON,ioos:station:TCOON:057:1,2016-02-01T09:48:00Z,28.4460,-96.3961,0.0,3.7,189.0,4.3,'11111222,11111222,11111222' 
TCOON,ioos:station:TCOON:057:1,2016-02-01T09:54:00Z,28.4460,-96.3961,0.0,3.2,180.0,4.5,'11111222,11111222,11111222' 
TCOON,ioos:station:TCOON:057:1,2016-02-01T10:00:00Z,28.4460,-96.3961,0.0,3.7,185.0,4.4,'11111222,11111222,11111222' 
TCOON,ioos:station:TCOON:057:1,2016-02-01T10:06:00Z,28.4460,-96.3961,0.0,2.9,176.0,4.6,'11111222,11111222,11111222' 
TCOON,ioos:station:TCOON:057:1,2016-02-01T10:12:00Z,28.4460,-96.3961,0.0,3.4,176.0,3.6,'11111222,11111222,11111222' 
TCOON,ioos:station:TCOON:057:1,2016-02-01T10:18:00Z,28.4460,-96.3961,0.0,3.5,177.0,3.9,'11111222,11111222,11111222' 
TCOON,ioos:station:TCOON:057:1,2016-02-01T10:24:00Z,28.4460,-96.3961,0.0,3.5,173.0,4.0,'11111222,11111222,11111222' 
TCOON,ioos:station:TCOON:057:1,2016-02-01T10:30:00Z,28.4460,-96.3961,0.0,3.3,183.0,3.9,'11111222,11111222,11111222' 
TCOON,ioos:station:TCOON:057:1,2016-02-01T10:36:00Z,28.4460,-96.3961,0.0,2.9,175.0,3.3,'11111222,11111222,11111222' 
TCOON,ioos:station:TCOON:057:1,2016-02-01T10:42:00Z,28.4460,-96.3961,0.0,2.8,166.0,3.2,'11111222,11111222,11111222' 
TCOON,ioos:station:TCOON:057:1,2016-02-01T10:48:00Z,28.4460,-96.3961,0.0,2.3,172.0,3.0,'11111222,11111222,11111222' 
TCOON,ioos:station:TCOON:057:1,2016-02-01T10:54:00Z,28.4460,-96.3961,0.0,2.8,171.0,3.0,'11111222,11111222,11111222' 
TCOON,ioos:station:TCOON:057:1,2016-02-01T11:00:00Z,28.4460,-96.3961,0.0,2.8,159.0,3.0,'11111222,11111222,11111222' 
TCOON,ioos:station:TCOON:057:1,2016-02-01T11:06:00Z,28.4460,-96.3961,0.0,2.4,176.0,3.2,'11111222,11111222,11111222' 
TCOON,ioos:station:TCOON:057:1,2016-02-01T11:12:00Z,28.4460,-96.3961,0.0,2.3,163.0,2.5,'11111222,11111222,11111222' 
TCOON,ioos:station:TCOON:057:1,2016-02-01T11:18:00Z,28.4460,-96.3961,0.0,2.5,147.0,3.0,'11111222,11111222,11111222' 
TCOON,ioos:station:TCOON:057:1,2016-02-01T11:24:00Z,28.4460,-96.3961,0.0,2.8,162.0,2.9,'11111222,11111222,11111222' 
TCOON,ioos:station:TCOON:057:1,2016-02-01T11:30:00Z,28.4460,-96.3961,0.0,2.6,148.0,3.0,'11111222,11111222,11111222' 
TCOON,ioos:station:TCOON:057:1,2016-02-01T11:36:00Z,28.4460,-96.3961,0.0,2.8,155.0,3.2,'11111222,11111222,11111222' 
TCOON,ioos:station:TCOON:057:1,2016-02-01T11:42:00Z,28.4460,-96.3961,0.0,2.5,160.0,2.7,'11111222,11111222,11111222' 
TCOON,ioos:station:TCOON:057:1,2016-02-01T11:48:00Z,28.4460,-96.3961,0.0,2.5,176.0,2.7,'11111222,11111222,11111222' 
TCOON,ioos:station:TCOON:057:1,2016-02-01T11:54:00Z,28.4460,-96.3961,0.0,3.0,155.0,3.3,'11111222,11111222,11111222' 
TCOON,ioos:station:TCOON:057:1,2016-02-01T12:00:00Z,28.4460,-96.3961,0.0,2.3,161.0,3.3,'11111222,11111222,11111222' 
TCOON,ioos:station:TCOON:057:1,2016-02-01T12:06:00Z,28.4460,-96.3961,0.0,2.7,169.0,3.1,'11111222,11111222,11111222' 
TCOON,ioos:station:TCOON:057:1,2016-02-01T12:12:00Z,28.4460,-96.3961,0.0,2.5,171.0,3.1,'11111222,11111222,11111222' 
TCOON,ioos:station:TCOON:057:1,2016-02-01T12:18:00Z,28.4460,-96.3961,0.0,1.9,158.0,3.0,'11111222,11111222,11111222' 
TCOON,ioos:station:TCOON:057:1,2016-02-01T12:24:00Z,28.4460,-96.3961,0.0,2.5,173.0,2.8,'11111222,11111222,11111222' 
TCOON,ioos:station:TCOON:057:1,2016-02-01T12:30:00Z,28.4460,-96.3961,0.0,2.3,167.0,2.5,'11111222,11111222,11111222' 
TCOON,ioos:station:TCOON:057:1,2016-02-01T12:36:00Z,28.4460,-96.3961,0.0,3.3,179.0,3.4,'11111222,11111222,11111222' 
TCOON,ioos:station:TCOON:057:1,2016-02-01T12:42:00Z,28.4460,-96.3961,0.0,3.0,175.0,3.6,'11111222,11111222,11111222' 
TCOON,ioos:station:TCOON:057:1,2016-02-01T12:48:00Z,28.4460,-96.3961,0.0,3.3,176.0,3.6,'11111222,11111222,11111222' 
TCOON,ioos:station:TCOON:057:1,2016-02-01T12:54:00Z,28.4460,-96.3961,0.0,3.7,180.0,4.1,'11111222,11111222,11111222' 
TCOON,ioos:station:TCOON:057:1,2016-02-01T13:00:00Z,28.4460,-96.3961,0.0,3.4,185.0,4.0,'11111222,11111222,11111222' 
TCOON,ioos:station:TCOON:057:1,2016-02-01T13:06:00Z,28.4460,-96.3961,0.0,3.4,179.0,4.2,'11111222,11111222,11111222' 
TCOON,ioos:station:TCOON:057:1,2016-02-01T13:12:00Z,28.4460,-96.3961,0.0,3.0,166.0,3.4,'11111222,11111222,11111222' 
TCOON,ioos:station:TCOON:057:1,2016-02-01T13:18:00Z,28.4460,-96.3961,0.0,2.7,190.0,3.4,'11111222,11111222,11111222' 
TCOON,ioos:station:TCOON:057:1,2016-02-01T13:24:00Z,28.4460,-96.3961,0.0,2.3,178.0,3.3,'11111222,11111222,11111222' 
TCOON,ioos:station:TCOON:057:1,2016-02-01T13:30:00Z,28.4460,-96.3961,0.0,1.9,177.0,2.6,'11111222,11111222,11111222' 
TCOON,ioos:station:TCOON:057:1,2016-02-01T13:36:00Z,28.4460,-96.3961,0.0,2.7,171.0,2.9,'11111222,11111222,11111222' 
TCOON,ioos:station:TCOON:057:1,2016-02-01T13:42:00Z,28.4460,-96.3961,0.0,3.0,162.0,3.1,'11111222,11111222,11111222' 
TCOON,ioos:station:TCOON:057:1,2016-02-01T13:48:00Z,28.4460,-96.3961,0.0,2.9,152.0,3.3,'11111222,11111222,11111222' 
TCOON,ioos:station:TCOON:057:1,2016-02-01T13:54:00Z,28.4460,-96.3961,0.0,2.9,155.0,3.4,'11111222,11111222,11111222' 
TCOON,ioos:station:TCOON:057:1,2016-02-01T14:00:00Z,28.4460,-96.3961,0.0,3.0,155.0,3.5,'11111222,11111222,11111222' 
TCOON,ioos:station:TCOON:057:1,2016-02-01T14:06:00Z,28.4460,-96.3961,0.0,3.2,164.0,3.5,'11111222,11111222,11111222' 
TCOON,ioos:station:TCOON:057:1,2016-02-01T14:12:00Z,28.4460,-96.3961,0.0,3.4,176.0,3.8,'11111222,11111222,11111222' 
TCOON,ioos:station:TCOON:057:1,2016-02-01T14:18:00Z,28.4460,-96.3961,0.0,2.6,151.0,3.8,'11111222,11111222,11111222' 
TCOON,ioos:station:TCOON:057:1,2016-02-01T14:24:00Z,28.4460,-96.3961,0.0,2.7,165.0,3.0,'11111222,11111222,11111222' 
TCOON,ioos:station:TCOON:057:1,2016-02-01T14:30:00Z,28.4460,-96.3961,0.0,3.2,162.0,3.7,'11111222,11111222,11111222' 
TCOON,ioos:station:TCOON:057:1,2016-02-01T14:36:00Z,28.4460,-96.3961,0.0,2.9,151.0,3.4,'11111222,11111222,11111222' 
TCOON,ioos:station:TCOON:057:1,2016-02-01T14:42:00Z,28.4460,-96.3961,0.0,2.6,148.0,2.9,'11111222,11111222,11111222' 
TCOON,ioos:station:TCOON:057:1,2016-02-01T14:48:00Z,28.4460,-96.3961,0.0,3.0,153.0,3.2,'11111222,11111222,11111222' 
TCOON,ioos:station:TCOON:057:1,2016-02-01T14:54:00Z,28.4460,-96.3961,0.0,3.3,150.0,3.4,'11111222,11111222,11111222' 
TCOON,ioos:station:TCOON:057:1,2016-02-01T15:00:00Z,28.4460,-96.3961,0.0,3.1,154.0,3.4,'11111222,11111222,11111222' 
TCOON,ioos:station:TCOON:057:1,2016-02-01T15:06:00Z,28.4460,-96.3961,0.0,2.5,152.0,3.0,'11111222,11111222,11111222' 
TCOON,ioos:station:TCOON:057:1,2016-02-01T15:12:00Z,28.4460,-96.3961,0.0,1.8,179.0,2.5,'11111222,11111222,11111222' 
TCOON,ioos:station:TCOON:057:1,2016-02-01T15:18:00Z,28.4460,-96.3961,0.0,2.1,178.0,2.3,'11111222,11111222,11111222' 
TCOON,ioos:station:TCOON:057:1,2016-02-01T15:24:00Z,28.4460,-96.3961,0.0,2.6,173.0,2.8,'11111222,11111222,11111222' 
TCOON,ioos:station:TCOON:057:1,2016-02-01T15:30:00Z,28.4460,-96.3961,0.0,2.6,163.0,2.9,'11111222,11111222,11111222' 
TCOON,ioos:station:TCOON:057:1,2016-02-01T15:36:00Z,28.4460,-96.3961,0.0,2.7,157.0,3.0,'11111222,11111222,11111222' 
TCOON,ioos:station:TCOON:057:1,2016-02-01T15:42:00Z,28.4460,-96.3961,0.0,2.7,157.0,3.0,'1111122,1111122,1111122' 
TCOON,ioos:station:TCOON:057:1,2016-02-01T15:48:00Z,28.4460,-96.3961,0.0,2.8,161.0,3.3,'11111222,11111222,11111222' 
TCOON,ioos:station:TCOON:057:1,2016-02-01T15:54:00Z,28.4460,-96.3961,0.0,2.8,155.0,2.9,'11111222,11111222,11111222' 
TCOON,ioos:station:TCOON:057:1,2016-02-01T16:00:00Z,28.4460,-96.3961,0.0,2.8,163.0,3.1,'11111222,11111222,11111222' 
TCOON,ioos:station:TCOON:057:1,2016-02-01T16:06:00Z,28.4460,-96.3961,0.0,3.0,168.0,3.2,'11111222,11111222,11111222' 
TCOON,ioos:station:TCOON:057:1,2016-02-01T16:12:00Z,28.4460,-96.3961,0.0,3.5,165.0,3.9,'11111222,11111222,11111222' 
TCOON,ioos:station:TCOON:057:1,2016-02-01T16:18:00Z,28.4460,-96.3961,0.0,3.3,169.0,3.8,'11111222,11111222,11111222' 
TCOON,ioos:station:TCOON:057:1,2016-02-01T16:24:00Z,28.4460,-96.3961,0.0,3.7,169.0,4.0,'11111222,11111222,11111222' 
TCOON,ioos:station:TCOON:057:1,2016-02-01T16:30:00Z,28.4460,-96.3961,0.0,4.0,165.0,4.2,'11111222,11111222,11111222' 
TCOON,ioos:station:TCOON:057:1,2016-02-01T16:36:00Z,28.4460,-96.3961,0.0,4.1,167.0,4.4,'11111222,11111222,11111222' 
TCOON,ioos:station:TCOON:057:1,2016-02-01T16:42:00Z,28.4460,-96.3961,0.0,3.9,169.0,4.5,'11111222,11111222,11111222' 
TCOON,ioos:station:TCOON:057:1,2016-02-01T16:48:00Z,28.4460,-96.3961,0.0,3.9,169.0,4.5,'1111122,1111122,1111122' 
TCOON,ioos:station:TCOON:057:1,2016-02-01T16:54:00Z,28.4460,-96.3961,0.0,3.3,178.0,3.7,'11111222,11111222,11111222' 
TCOON,ioos:station:TCOON:057:1,2016-02-01T17:00:00Z,28.4460,-96.3961,0.0,3.3,170.0,3.7,'11111222,11111222,11111222' 
TCOON,ioos:station:TCOON:057:1,2016-02-01T17:06:00Z,28.4460,-96.3961,0.0,3.9,168.0,4.2,'11111222,11111222,11111222' 
TCOON,ioos:station:TCOON:057:1,2016-02-01T17:12:00Z,28.4460,-96.3961,0.0,4.2,169.0,4.5,'11111222,11111222,11111222' 
TCOON,ioos:station:TCOON:057:1,2016-02-01T17:18:00Z,28.4460,-96.3961,0.0,4.3,165.0,5.1,'11111222,11111222,11111222' 
TCOON,ioos:station:TCOON:057:1,2016-02-01T17:24:00Z,28.4460,-96.3961,0.0,5.1,163.0,5.4,'11111222,11111222,11111222' 
TCOON,ioos:station:TCOON:057:1,2016-02-01T17:30:00Z,28.4460,-96.3961,0.0,5.1,162.0,5.4,'11111222,11111222,11111222' 
TCOON,ioos:station:TCOON:057:1,2016-02-01T17:36:00Z,28.4460,-96.3961,0.0,4.4,162.0,5.5,'11111222,11111222,11111222' 
TCOON,ioos:station:TCOON:057:1,2016-02-01T17:42:00Z,28.4460,-96.3961,0.0,4.4,162.0,5.5,'1111122,1111122,1111122' 
TCOON,ioos:station:TCOON:057:1,2016-02-01T17:48:00Z,28.4460,-96.3961,0.0,5.2,157.0,5.8,'11111222,11111222,11111222' 
TCOON,ioos:station:TCOON:057:1,2016-02-01T17:54:00Z,28.4460,-96.3961,0.0,4.5,154.0,5.3,'11111222,11111222,11111222' 
TCOON,ioos:station:TCOON:057:1,2016-02-01T18:00:00Z,28.4460,-96.3961,0.0,4.2,156.0,4.7,'11111222,11111222,11111222' 
TCOON,ioos:station:TCOON:057:1,2016-02-01T18:06:00Z,28.4460,-96.3961,0.0,4.1,165.0,4.7,'11111222,11111222,11111222' 
TCOON,ioos:station:TCOON:057:1,2016-02-01T18:12:00Z,28.4460,-96.3961,0.0,3.9,161.0,4.5,'11111222,11111222,11111222' 
TCOON,ioos:station:TCOON:057:1,2016-02-01T18:18:00Z,28.4460,-96.3961,0.0,4.1,154.0,4.6,'11111222,11111222,11111222' 
TCOON,ioos:station:TCOON:057:1,2016-02-01T18:24:00Z,28.4460,-96.3961,0.0,3.8,161.0,4.4,'11111222,11111222,11111222' 
TCOON,ioos:station:TCOON:057:1,2016-02-01T18:30:00Z,28.4460,-96.3961,0.0,3.7,165.0,4.3,'11111222,11111222,11111222' 
TCOON,ioos:station:TCOON:057:1,2016-02-01T18:36:00Z,28.4460,-96.3961,0.0,4.6,160.0,5.4,'11111222,11111222,11111222' 
TCOON,ioos:station:TCOON:057:1,2016-02-01T18:42:00Z,28.4460,-96.3961,0.0,4.6,160.0,5.4,'1111122,1111122,1111122' 
TCOON,ioos:station:TCOON:057:1,2016-02-01T18:48:00Z,28.4460,-96.3961,0.0,5.2,163.0,5.8,'11111222,11111222,11111222' 
TCOON,ioos:station:TCOON:057:1,2016-02-01T18:54:00Z,28.4460,-96.3961,0.0,5.2,163.0,5.8,'11111222,11111222,11111222' 
TCOON,ioos:station:TCOON:057:1,2016-02-01T19:00:00Z,28.4460,-96.3961,0.0,5.4,159.0,5.9,'11111222,11111222,11111222' 
TCOON,ioos:station:TCOON:057:1,2016-02-01T19:06:00Z,28.4460,-96.3961,0.0,5.6,168.0,6.6,'11111222,11111222,11111222' 
TCOON,ioos:station:TCOON:057:1,2016-02-01T19:12:00Z,28.4460,-96.3961,0.0,4.8,165.0,5.9,'11111222,11111222,11111222' 
TCOON,ioos:station:TCOON:057:1,2016-02-01T19:18:00Z,28.4460,-96.3961,0.0,4.9,159.0,5.5,'11111222,11111222,11111222' 
TCOON,ioos:station:TCOON:057:1,2016-02-01T19:24:00Z,28.4460,-96.3961,0.0,5.5,158.0,5.9,'11111222,11111222,11111222' 
TCOON,ioos:station:TCOON:057:1,2016-02-01T19:30:00Z,28.4460,-96.3961,0.0,4.9,157.0,5.5,'11111222,11111222,11111222' 
TCOON,ioos:station:TCOON:057:1,2016-02-01T19:36:00Z,28.4460,-96.3961,0.0,4.9,157.0,5.5,'1111122,1111122,1111122' 
TCOON,ioos:station:TCOON:057:1,2016-02-01T19:42:00Z,28.4460,-96.3961,0.0,4.7,161.0,5.3,'11111222,11111222,11111222' 
TCOON,ioos:station:TCOON:057:1,2016-02-01T19:48:00Z,28.4460,-96.3961,0.0,4.7,165.0,5.5,'11111222,11111222,11111222' 
TCOON,ioos:station:TCOON:057:1,2016-02-01T19:54:00Z,28.4460,-96.3961,0.0,4.7,162.0,5.2,'11111222,11111222,11111222' 
TCOON,ioos:station:TCOON:057:1,2016-02-01T20:00:00Z,28.4460,-96.3961,0.0,4.1,156.0,5.0,'11111222,11111222,11111222' 
TCOON,ioos:station:TCOON:057:1,2016-02-01T20:06:00Z,28.4460,-96.3961,0.0,4.8,157.0,5.3,'11111222,11111222,11111222' 
TCOON,ioos:station:TCOON:057:1,2016-02-01T20:12:00Z,28.4460,-96.3961,0.0,5.3,152.0,5.7,'11111222,11111222,11111222' 
TCOON,ioos:station:TCOON:057:1,2016-02-01T20:18:00Z,28.4460,-96.3961,0.0,5.6,149.0,6.5,'11111222,11111222,11111222' 
TCOON,ioos:station:TCOON:057:1,2016-02-01T20:24:00Z,28.4460,-96.3961,0.0,5.0,143.0,6.0,'11111222,11111222,11111222' 